Location: Aulnoy
(48.8410°N, 3.0967°E)
Time: 05:38:07
(UTC+00:00)

Cosmos 1825 - Pass Details

Date: 09 February 2023
Orbit: 480 x 487 km, 82.5° (Epoch: 30 March)

Event Time Altitude Azimuth Distance (km) Brightness Sun altitude
Rises 17:29:05 0° 186° (S) 2,570 6.0 -5.7°
Reaches altitude 10° 17:31:11 10° 185° (S) 1,694 5.1 -6.0°
Maximum altitude 17:34:53 81° 99° (E) 510 2.1 -6.6°
Drops below altitude 10° 17:38:38 10° 11° (NNE) 1,709 4.6 -7.2°
Sets 17:40:45 0° 11° (N) 2,597 5.5 -7.5°
